| time (UTC) | temp C | wind direction | speed KPH | gust KPH | rain 1hr cm | rain 24hr cm | rain mn cm | humidity % | barometer mb |
| 20260506014204 | 20 | 251 | 6.4 | 24.1 | 0.00 | 0.00 | 0.00 | 70 | 1018.2 |
| 20260506014043 | -17 | 28 | 0.0 | 0.0 | 0.00 | 0.00 | 0.00 | 1014.6 | |
| 20260506013704 | 20 | 240 | 4.8 | 14.5 | 0.00 | 0.00 | 0.00 | 70 | 1018.1 |
| 20260506013542 | -17 | 21 | 0.0 | 0.0 | 0.00 | 0.00 | 0.00 | 1014.3 | |
| 20260506013204 | 20 | 182 | 4.8 | 11.3 | 0.00 | 0.00 | 0.00 | 69 | 1017.9 |
| 20260506013038 | -17 | 16 | 0.0 | 0.0 | 0.00 | 0.00 | 0.00 | 1014.4 | |
| 20260506013021 | 11 | 257 | 0.0 | 3.2 | 0.00 | 0.15 | 0.00 | 87 | 1009.3 |
| 20260506012534 | -17 | 15 | 0.0 | 0.0 | 0.00 | 0.00 | 0.00 | 1014.4 | |
| 20260506012204 | 20 | 161 | 8.0 | 20.9 | 0.00 | 0.00 | 0.00 | 70 | 1017.9 |
| 20260506012031 | -17 | 12 | 0.0 | 0.0 | 0.00 | 0.00 | 0.00 | 1014.4 | |
| 20260506011703 | 20 | 305 | 3.2 | 9.7 | 0.00 | 0.00 | 0.00 | 69 | 1017.9 |
| 20260506011529 | -17 | 18 | 0.0 | 0.0 | 0.00 | 0.00 | 0.00 | 1014.3 | |
| 20260506011523 | 11 | 257 | 1.6 | 4.8 | 0.00 | 0.15 | 0.00 | 87 | 1009.5 |
| 20260506011204 | 20 | 251 | 4.8 | 14.5 | 0.00 | 0.00 | 0.00 | 69 | 1017.8 |
| 20260506011025 | -17 | 5 | 0.0 | 0.0 | 0.00 | 0.00 | 0.00 | 1014.4 | |
| 20260506010703 | 20 | 169 | 6.4 | 14.5 | 0.00 | 0.00 | 0.00 | 69 | 1017.8 |
| 20260506010525 | -17 | 15 | 0.0 | 0.0 | 0.00 | 0.00 | 0.00 | 1014.2 | |
| 20260506010204 | 20 | 131 | 4.8 | 11.3 | 0.00 | 0.00 | 0.00 | 69 | 1017.7 |
| 20260506010022 | 11 | 285 | 1.6 | 6.4 | 0.00 | 0.15 | 0.00 | 87 | 1009.7 |
| 20260506005518 | -17 | 347 | 0.0 | 1.6 | 0.00 | 0.00 | 0.00 | 1014.2 | |
| 20260506005204 | 21 | 225 | 4.8 | 14.5 | 0.00 | 0.00 | 0.00 | 68 | 1017.5 |
| 20260506005013 | -17 | 33 | 0.0 | 0.0 | 0.00 | 0.00 | 0.00 | 1014.2 | |
| 20260506004704 | 21 | 136 | 4.8 | 14.5 | 0.00 | 0.00 | 0.00 | 68 | 1017.5 |
| 20260506004523 | 11 | 283 | 3.2 | 9.7 | 0.00 | 0.15 | 0.00 | 87 | 1009.9 |
| 20260506004511 | -17 | 290 | 1.6 | 1.6 | 0.00 | 0.00 | 0.00 | 1014.2 | |
| 20260506004204 | 21 | 97 | 8.0 | 16.1 | 0.00 | 0.00 | 0.00 | 68 | 1017.4 |
| 20260506004008 | -17 | 25 | 0.0 | 1.6 | 0.00 | 0.00 | 0.00 | 1014.0 | |
| 20260506003703 | 21 | 108 | 6.4 | 12.9 | 0.00 | 0.00 | 0.00 | 67 | 1017.4 |
| 20260506003504 | -17 | 71 | 0.0 | 0.0 | 0.00 | 0.00 | 0.00 | 1014.0 | |
| 20260506003203 | 21 | 320 | 4.8 | 16.1 | 0.00 | 0.00 | 0.00 | 67 | 1017.2 |
| 20260506003018 | 11 | 283 | 3.2 | 8.0 | 0.00 | 0.15 | 0.00 | 87 | 1010.0 |
| 20260506003000 | -17 | 177 | 3.2 | 3.2 | 0.00 | 0.00 | 0.00 | 1014.1 | |
| 20260506002704 | 21 | 104 | 6.4 | 12.9 | 0.00 | 0.00 | 0.00 | 67 | 1017.2 |
| 20260506002456 | -17 | 353 | 1.6 | 1.6 | 0.00 | 0.00 | 0.00 | 1013.8 | |
| 20260506002203 | 21 | 151 | 6.4 | 14.5 | 0.00 | 0.00 | 0.00 | 66 | 1017.2 |
| 20260506001952 | -17 | 78 | 1.6 | 1.6 | 0.00 | 0.00 | 0.00 | 1013.8 | |
| 20260506001703 | 21 | 118 | 8.0 | 14.5 | 0.00 | 0.00 | 0.00 | 66 | 1017.2 |
| 20260506001513 | 11 | 261 | 3.2 | 8.0 | 0.00 | 0.15 | 0.00 | 86 | 1010.0 |
| 20260506001449 | -17 | 226 | 3.2 | 3.2 | 0.00 | 0.00 | 0.00 | 1013.8 | |
| 20260506001203 | 21 | 28 | 4.8 | 19.3 | 0.00 | 0.00 | 0.00 | 66 | 1017.0 |
| 20260506000946 | -17 | 32 | 0.0 | 1.6 | 0.00 | 0.00 | 0.00 | 1014.0 | |
| 20260506000703 | 21 | 266 | 3.2 | 11.3 | 0.00 | 0.00 | 0.00 | 66 | 1017.2 |
| 20260506000445 | -17 | 186 | 3.2 | 3.2 | 0.00 | 0.00 | 0.00 | 1014.0 | |
| 20260506000205 | 22 | 26 | 4.8 | 9.7 | 0.00 | 0.00 | 0.00 | 65 | 1017.1 |
| 20260506000011 | 11 | 279 | 3.2 | 8.0 | 0.00 | 0.15 | 0.00 | 87 | 1010.1 |
| 20260505235940 | -17 | 133 | 4.8 | 4.8 | 0.00 | 0.00 | 0.00 | 1014.1 | |
| 20260505235704 | 22 | 279 | 8.0 | 14.5 | 0.00 | 0.00 | 0.00 | 65 | 1017.0 |
| 20260505235439 | -17 | 172 | 1.6 | 3.2 | 0.00 | 0.00 | 0.00 | 1013.9 | |
| 20260505235204 | 22 | 158 | 8.0 | 19.3 | 0.00 | 0.00 | 0.00 | 65 | 1016.9 |
| 20260505234935 | -17 | 98 | 1.6 | 3.2 | 0.00 | 0.00 | 0.00 | 1013.9 | |
| 20260505234704 | 22 | 351 | 4.8 | 12.9 | 0.00 | 0.00 | 0.00 | 64 | 1016.9 |
| 20260505234512 | 11 | 278 | 4.8 | 12.9 | 0.00 | 0.15 | 0.00 | 87 | 1010.3 |
| 20260505234433 | -17 | 153 | 0.0 | 0.0 | 0.00 | 0.00 | 0.00 | 1013.9 | |
| 20260505234204 | 22 | 109 | 4.8 | 14.5 | 0.00 | 0.00 | 0.00 | 64 | 1016.8 |
| 20260505233929 | -17 | 242 | 1.6 | 3.2 | 0.00 | 0.00 | 0.00 | 1014.2 | |
| 20260505233427 | -17 | 226 | 1.6 | 3.2 | 0.00 | 0.00 | 0.00 | 1014.4 | |
| 20260505233008 | 12 | 267 | 6.4 | 14.5 | 0.00 | 0.15 | 0.00 | 88 | 1010.2 |
| 20260505232924 | -17 | 244 | 1.6 | 3.2 | 0.00 | 0.00 | 0.00 | 1014.2 | |
| 20260505232703 | 22 | 213 | 8.0 | 20.9 | 0.00 | 0.00 | 0.00 | 63 | 1016.6 |
| 20260505232422 | -17 | 165 | 3.2 | 3.2 | 0.00 | 0.00 | 0.00 | 1014.2 | |
| 20260505232204 | 23 | 145 | 6.4 | 20.9 | 0.00 | 0.00 | 0.00 | 62 | 1016.9 |
| 20260505231919 | -17 | 21 | 1.6 | 1.6 | 0.00 | 0.00 | 0.00 | 1014.0 | |
| 20260505231704 | 23 | 293 | 4.8 | 24.1 | 0.00 | 0.00 | 0.00 | 62 | 1016.8 |
| 20260505231510 | 12 | 270 | 6.4 | 12.9 | 0.00 | 0.15 | 0.00 | 88 | 1010.2 |
| 20260505231416 | -17 | 223 | 6.4 | 8.0 | 0.00 | 0.00 | 0.00 | 1014.0 | |
| 20260505231203 | 23 | 155 | 4.8 | 16.1 | 0.00 | 0.00 | 0.00 | 62 | 1016.6 |
| 20260505230914 | -17 | 245 | 1.6 | 3.2 | 0.00 | 0.00 | 0.00 | 1014.0 | |
| 20260505230704 | 23 | 171 | 4.8 | 14.5 | 0.00 | 0.00 | 0.00 | 61 | 1016.5 |
| 20260505230412 | -17 | 104 | 3.2 | 4.8 | 0.00 | 0.00 | 0.00 | 1013.9 | |
| 20260505230204 | 23 | 319 | 8.0 | 24.1 | 0.00 | 0.00 | 0.00 | 62 | 1016.5 |
| 20260505230015 | 12 | 286 | 3.2 | 12.9 | 0.00 | 0.15 | 0.00 | 87 | 1010.2 |
| 20260505225908 | -17 | 218 | 3.2 | 3.2 | 0.00 | 0.00 | 0.00 | 1013.8 | |
| 20260505225703 | 23 | 160 | 8.0 | 22.5 | 0.00 | 0.00 | 0.00 | 61 | 1016.6 |
| 20260505225405 | -17 | 221 | 4.8 | 8.0 | 0.00 | 0.00 | 0.00 | 1013.9 | |
| 20260505225203 | 23 | 180 | 4.8 | 14.5 | 0.00 | 0.00 | 0.00 | 60 | 1016.5 |
| 20260505224901 | -17 | 201 | 4.8 | 8.0 | 0.00 | 0.00 | 0.00 | 1013.9 | |
| 20260505224704 | 23 | 145 | 4.8 | 20.9 | 0.00 | 0.00 | 0.00 | 61 | 1016.5 |
| 20260505224504 | 12 | 301 | 6.4 | 14.5 | 0.00 | 0.15 | 0.00 | 87 | 1010.3 |
| 20260505224358 | -17 | 185 | 6.4 | 8.0 | 0.00 | 0.00 | 0.00 | 1014.1 | |
| 20260505224204 | 23 | 267 | 4.8 | 19.3 | 0.00 | 0.00 | 0.00 | 60 | 1016.4 |
| 20260505223855 | -17 | 140 | 1.6 | 1.6 | 0.00 | 0.00 | 0.00 | 1014.0 | |
| 20260505223352 | -17 | 265 | 3.2 | 3.2 | 0.00 | 0.00 | 0.00 | 1013.7 | |
| 20260505223203 | 24 | 161 | 8.0 | 14.5 | 0.00 | 0.00 | 0.00 | 59 | 1016.5 |
| 20260505223001 | 12 | 260 | 8.0 | 16.1 | 0.00 | 0.15 | 0.00 | 86 | 1010.5 |
| 20260505222848 | -17 | 37 | 0.0 | 1.6 | 0.00 | 0.00 | 0.00 | 1013.7 | |
| 20260505222704 | 24 | 137 | 4.8 | 9.7 | 0.00 | 0.00 | 0.00 | 59 | 1016.4 |
| 20260505222344 | -17 | 31 | 1.6 | 1.6 | 0.00 | 0.00 | 0.00 | 1013.9 | |
| 20260505222203 | 24 | 155 | 4.8 | 12.9 | 0.00 | 0.00 | 0.00 | 58 | 1016.4 |
| 20260505221841 | -17 | 192 | 4.8 | 9.7 | 0.00 | 0.00 | 0.00 | 1013.8 | |
| 20260505221704 | 24 | 195 | 6.4 | 24.1 | 0.00 | 0.00 | 0.00 | 57 | 1016.5 |
| 20260505221601 | 12 | 267 | 4.8 | 12.9 | 0.00 | 0.15 | 0.00 | 86 | 1010.6 |
| 20260505221338 | -17 | 216 | 3.2 | 3.2 | 0.00 | 0.00 | 0.00 | 1013.8 | |
| 20260505221204 | 25 | 196 | 6.4 | 22.5 | 0.00 | 0.00 | 0.00 | 57 | 1016.5 |
| 20260505220835 | -17 | 265 | 1.6 | 1.6 | 0.00 | 0.00 | 0.00 | 1013.6 | |
| 20260505220704 | 25 | 10 | 6.4 | 20.9 | 0.00 | 0.00 | 0.00 | 56 | 1016.6 |
| 20260505220332 | -17 | 9 | 3.2 | 4.8 | 0.00 | 0.00 | 0.00 | 1013.6 | |
| 20260505220205 | 25 | 75 | 4.8 | 14.5 | 0.00 | 0.00 | 0.00 | 55 | 1016.5 |
| 20260505220106 | 13 | 264 | 4.8 | 11.3 | 0.00 | 0.15 | 0.00 | 86 | 1010.8 |
| 20260505215830 | -17 | 265 | 4.8 | 4.8 | 0.00 | 0.00 | 0.00 | 1013.4 | |
| 20260505215704 | 25 | 159 | 11.3 | 24.1 | 0.00 | 0.00 | 0.00 | 54 | 1016.3 |
| 20260505215328 | -17 | 279 | 1.6 | 3.2 | 0.00 | 0.00 | 0.00 | 1013.5 | |
| 20260505214826 | -17 | 252 | 3.2 | 3.2 | 0.00 | 0.00 | 0.00 | 1013.6 | |
| 20260505214704 | 25 | 111 | 8.0 | 33.8 | 0.00 | 0.00 | 0.00 | 54 | 1016.3 |
| 20260505214604 | 12 | 262 | 6.4 | 12.9 | 0.00 | 0.15 | 0.15 | 86 | 1010.9 |
| 20260505214323 | -17 | 230 | 3.2 | 3.2 | 0.00 | 0.00 | 0.00 | 1013.6 | |
| 20260505214204 | 25 | 158 | 8.0 | 27.4 | 0.00 | 0.00 | 0.00 | 53 | 1016.2 |
| 20260505213819 | -17 | 154 | 6.4 | 11.3 | 0.00 | 0.00 | 0.00 | 1013.6 | |
| 20260505213317 | -17 | 154 | 4.8 | 8.0 | 0.00 | 0.00 | 0.00 | 1013.8 | |
| 20260505213203 | 26 | 102 | 9.7 | 19.3 | 0.00 | 0.00 | 0.00 | 52 | 1016.1 |
| 20260505213052 | 12 | 260 | 4.8 | 11.3 | 0.00 | 0.15 | 0.15 | 85 | 1011.1 |
| 20260505212813 | -17 | 261 | 6.4 | 9.7 | 0.00 | 0.00 | 0.00 | 1013.8 | |
| 20260505212704 | 26 | 9 | 9.7 | 20.9 | 0.00 | 0.00 | 0.00 | 51 | 1016.1 |
| 20260505212310 | -17 | 346 | 1.6 | 3.2 | 0.00 | 0.00 | 0.00 | 1013.7 | |
| 20260505212203 | 26 | 157 | 9.7 | 24.1 | 0.00 | 0.00 | 0.00 | 50 | 1016.2 |
| 20260505211806 | -17 | 167 | 1.6 | 1.6 | 0.00 | 0.00 | 0.00 | 1013.7 | |
| 20260505211704 | 26 | 96 | 8.0 | 24.1 | 0.00 | 0.00 | 0.00 | 49 | 1016.0 |
| 20260505211626 | 12 | 300 | 3.2 | 16.1 | 0.00 | 0.15 | 0.15 | 84 | 1011.3 |
| 20260505211304 | -17 | 6 | 3.2 | 4.8 | 0.00 | 0.00 | 0.00 | 1013.6 | |
| 20260505211204 | 27 | 2 | 8.0 | 19.3 | 0.00 | 0.00 | 0.00 | 48 | 1015.9 |
| 20260505210800 | -17 | 260 | 6.4 | 9.7 | 0.00 | 0.00 | 0.00 | 1013.7 | |
| 20260505210704 | 27 | 128 | 8.0 | 20.9 | 0.00 | 0.00 | 0.00 | 48 | 1016.0 |
| 20260505210258 | -17 | 251 | 4.8 | 8.0 | 0.00 | 0.00 | 0.00 | 1013.8 | |
| 20260505210204 | 27 | 351 | 3.2 | 16.1 | 0.00 | 0.00 | 0.00 | 47 | 1015.9 |
| 20260505210051 | 12 | 271 | 4.8 | 17.7 | 0.00 | 0.15 | 0.15 | 83 | 1011.4 |
| 20260505205754 | -17 | 230 | 8.0 | 11.3 | 0.00 | 0.00 | 0.00 | 1013.8 | |
| 20260505205704 | 27 | 127 | 3.2 | 11.3 | 0.00 | 0.00 | 0.00 | 46 | 1016.1 |
| 20260505205253 | -17 | 24 | 1.6 | 3.2 | 0.00 | 0.00 | 0.00 | 1013.8 | |
| 20260505205203 | 27 | 119 | 6.4 | 19.3 | 0.00 | 0.00 | 0.00 | 47 | 1015.9 |
| 20260505204749 | -17 | 34 | 1.6 | 1.6 | 0.00 | 0.00 | 0.00 | 1013.8 | |
| 20260505204703 | 27 | 154 | 4.8 | 20.9 | 0.00 | 0.00 | 0.00 | 47 | 1016.1 |
| 20260505204600 | 13 | 262 | 9.7 | 20.9 | 0.00 | 0.15 | 0.15 | 82 | 1011.4 |
| 20260505204247 | -17 | 176 | 4.8 | 8.0 | 0.00 | 0.00 | 0.00 | 1013.9 | |
| 20260505203744 | -17 | 70 | 1.6 | 1.6 | 0.00 | 0.00 | 0.00 | 1013.9 | |
| 20260505203704 | 27 | 154 | 11.3 | 22.5 | 0.00 | 0.00 | 0.00 | 47 | 1015.9 |
| 20260505203241 | -17 | 204 | 6.4 | 8.0 | 0.00 | 0.00 | 0.00 | 1013.8 | |
| 20260505203204 | 27 | 114 | 8.0 | 20.9 | 0.00 | 0.00 | 0.00 | 47 | 1016.0 |
| 20260505203054 | 13 | 255 | 11.3 | 20.9 | 0.00 | 0.15 | 0.15 | 81 | 1011.4 |
| 20260505202736 | -17 | 192 | 8.0 | 9.7 | 0.00 | 0.00 | 0.00 | 1014.0 | |
| 20260505202704 | 27 | 20 | 3.2 | 19.3 | 0.00 | 0.00 | 0.00 | 47 | 1016.0 |
| 20260505202233 | -17 | 23 | 1.6 | 3.2 | 0.00 | 0.00 | 0.00 | 1014.0 | |
| 20260505202203 | 27 | 315 | 9.7 | 27.4 | 0.00 | 0.00 | 0.00 | 45 | 1016.2 |
| 20260505201729 | -17 | 293 | 1.6 | 3.2 | 0.00 | 0.00 | 0.00 | 1014.2 | |
| 20260505201703 | 27 | 186 | 11.3 | 22.5 | 0.00 | 0.00 | 0.00 | 45 | 1016.3 |
| 20260505201550 | 13 | 254 | 8.0 | 20.9 | 0.00 | 0.15 | 0.15 | 81 | 1011.3 |
| 20260505201227 | -17 | 151 | 3.2 | 3.2 | 0.00 | 0.00 | 0.00 | 1014.2 | |
| 20260505201204 | 27 | 189 | 8.0 | 20.9 | 0.00 | 0.00 | 0.00 | 43 | 1016.4 |
| 20260505200726 | -17 | 187 | 8.0 | 11.3 | 0.00 | 0.00 | 0.00 | 1014.2 | |
| 20260505200703 | 27 | 141 | 9.7 | 22.5 | 0.00 | 0.00 | 0.00 | 43 | 1016.5 |
| 20260505200222 | -17 | 237 | 4.8 | 8.0 | 0.00 | 0.00 | 0.00 | 1014.5 | |
| 20260505200203 | 27 | 313 | 8.0 | 19.3 | 0.00 | 0.00 | 0.00 | 43 | 1016.6 |
| 20260505200050 | 13 | 271 | 12.9 | 22.5 | 0.00 | 0.15 | 0.15 | 82 | 1011.2 |
| 20260505195717 | -17 | 158 | 4.8 | 9.7 | 0.00 | 0.00 | 0.00 | 1014.4 | |
| 20260505195704 | 27 | 90 | 9.7 | 16.1 | 0.00 | 0.00 | 0.00 | 43 | 1016.5 |
| 20260505195215 | -17 | 294 | 3.2 | 4.8 | 0.00 | 0.00 | 0.00 | 1014.5 | |
| 20260505194713 | -17 | 294 | 4.8 | 8.0 | 0.00 | 0.00 | 0.00 | 1014.6 | |
| 20260505194703 | 27 | 150 | 4.8 | 14.5 | 0.00 | 0.00 | 0.00 | 43 | 1016.9 |
| 20260505194549 | 13 | 269 | 9.7 | 20.9 | 0.00 | 0.15 | 0.15 | 82 | 1011.1 |
| 20260505194209 | -17 | 177 | 4.8 | 4.8 | 0.00 | 0.00 | 0.00 | 1014.5 | |
| 20260505194204 | 27 | 255 | 11.3 | 24.1 | 0.00 | 0.00 | 0.00 | 43 | 1016.8 |
| 20260505193705 | -17 | 276 | 3.2 | 3.2 | 0.00 | 0.00 | 0.00 | 1014.6 | |
| 20260505193703 | 27 | 295 | 8.0 | 22.5 | 0.00 | 0.00 | 0.00 | 42 | 1017.0 |
| 20260505193203 | 27 | 184 | 9.7 | 22.5 | 0.00 | 0.00 | 0.00 | 43 | 1017.0 |
| 20260505193048 | 13 | 257 | 11.3 | 22.5 | 0.00 | 0.15 | 0.15 | 82 | 1011.1 |
| 20260505192704 | 27 | 133 | 4.8 | 20.9 | 0.00 | 0.00 | 0.00 | 42 | 1017.1 |
| 20260505192701 | -17 | 239 | 6.4 | 8.0 | 0.00 | 0.00 | 0.00 | 1014.6 | |
| 20260505192203 | 27 | 288 | 9.7 | 20.9 | 0.00 | 0.00 | 0.00 | 42 | 1017.1 |
| 20260505192158 | -17 | 259 | 4.8 | 9.7 | 0.00 | 0.00 | 0.00 | 1014.6 | |
| 20260505191704 | 27 | 2 | 9.7 | 22.5 | 0.00 | 0.00 | 0.00 | 43 | 1017.2 |
| 20260505191656 | -17 | 340 | 11.3 | 16.1 | 0.00 | 0.00 | 0.00 | 1014.6 | |
| 20260505191549 | 13 | 268 | 9.7 | 19.3 | 0.00 | 0.15 | 0.15 | 80 | 1011.1 |
| 20260505191154 | -17 | 236 | 6.4 | 8.0 | 0.00 | 0.00 | 0.00 | 1014.5 | |
| 20260505190650 | -17 | 255 | 4.8 | 4.8 | 0.00 | 0.00 | 0.00 | 1014.6 | |
| 20260505190204 | 27 | 168 | 9.7 | 20.9 | 0.00 | 0.00 | 0.00 | 43 | 1017.3 |
| 20260505190150 | -17 | 264 | 4.8 | 4.8 | 0.00 | 0.00 | 0.00 | 1014.6 | |
| 20260505190047 | 13 | 259 | 11.3 | 22.5 | 0.00 | 0.15 | 0.15 | 79 | 1011.0 |
| 20260505185704 | 27 | 145 | 9.7 | 24.1 | 0.00 | 0.00 | 0.00 | 43 | 1017.3 |
| 20260505185647 | -17 | 348 | 6.4 | 9.7 | 0.00 | 0.00 | 0.00 | 1014.9 | |
| 20260505185204 | 27 | 265 | 9.7 | 25.7 | 0.00 | 0.00 | 0.00 | 43 | 1017.4 |
| 20260505185143 | -17 | 205 | 6.4 | 8.0 | 0.00 | 0.00 | 0.00 | 1014.9 | |
| 20260505184703 | 27 | 339 | 8.0 | 24.1 | 0.00 | 0.00 | 0.00 | 43 | 1017.3 |
| 20260505184639 | -17 | 49 | 1.6 | 1.6 | 0.00 | 0.00 | 0.00 | 1015.1 | |
| 20260505184547 | 14 | 276 | 14.5 | 22.5 | 0.00 | 0.15 | 0.15 | 76 | 1011.0 |
| 20260505184204 | 27 | 302 | 8.0 | 22.5 | 0.00 | 0.00 | 0.00 | 44 | 1017.4 |
| 20260505184136 | -17 | 194 | 4.8 | 4.8 | 0.00 | 0.00 | 0.00 | 1015.1 | |
| 20260505183704 | 27 | 310 | 11.3 | 35.4 | 0.00 | 0.00 | 0.00 | 43 | 1017.3 |
| 20260505183633 | -17 | 174 | 4.8 | 8.0 | 0.00 | 0.00 | 0.00 | 1015.1 | |
| 20260505183204 | 27 | 249 | 8.0 | 16.1 | 0.00 | 0.00 | 0.00 | 42 | 1017.4 |
| 20260505183131 | -17 | 172 | 8.0 | 9.7 | 0.00 | 0.00 | 0.00 | 1015.0 | |
| 20260505183047 | 15 | 253 | 11.3 | 22.5 | 0.00 | 0.15 | 0.15 | 76 | 1011.1 |
| 20260505182704 | 27 | 246 | 8.0 | 20.9 | 0.00 | 0.00 | 0.00 | 40 | 1017.4 |
| 20260505182627 | -17 | 19 | 1.6 | 1.6 | 0.00 | 0.00 | 0.00 | 1015.0 | |
| 20260505182203 | 27 | 221 | 4.8 | 12.9 | 0.00 | 0.00 | 0.00 | 41 | 1017.4 |
| 20260505182124 | -17 | 154 | 1.6 | 1.6 | 0.00 | 0.00 | 0.00 | 1015.1 | |
| 20260505181703 | 27 | 228 | 4.8 | 20.9 | 0.00 | 0.00 | 0.00 | 41 | 1017.6 |
| 20260505181620 | -17 | 155 | 3.2 | 4.8 | 0.00 | 0.00 | 0.00 | 1015.1 | |
| 20260505181606 | 15 | 300 | 8.0 | 24.1 | 0.00 | 0.15 | 0.15 | 75 | 1011.2 |
| 20260505181204 | 27 | 242 | 9.7 | 22.5 | 0.00 | 0.00 | 0.00 | 41 | 1017.6 |
| 20260505181118 | -17 | 350 | 0.0 | 1.6 | 0.00 | 0.00 | 0.00 | 1015.1 | |
| 20260505180703 | 27 | 121 | 9.7 | 20.9 | 0.00 | 0.00 | 0.00 | 40 | 1017.5 |
| 20260505180614 | -17 | 339 | 6.4 | 9.7 | 0.00 | 0.00 | 0.00 | 1015.3 | |
| 20260505180204 | 27 | 278 | 8.0 | 20.9 | 0.00 | 0.00 | 0.00 | 42 | 1017.7 |
| 20260505180112 | -17 | 95 | 3.2 | 4.8 | 0.00 | 0.00 | 0.00 | 1015.3 | |
| 20260505180100 | 15 | 259 | 12.9 | 22.5 | 0.00 | 0.15 | 0.15 | 76 | 1011.1 |
| 20260505175703 | 27 | 303 | 8.0 | 19.3 | 0.00 | 0.00 | 0.00 | 43 | 1017.6 |
| 20260505175607 | -17 | 249 | 8.0 | 9.7 | 0.00 | 0.00 | 0.00 | 1015.2 | |
| 20260505175204 | 27 | 129 | 6.4 | 16.1 | 0.00 | 0.00 | 0.00 | 43 | 1017.6 |
| 20260505175104 | -17 | 106 | 4.8 | 8.0 | 0.00 | 0.00 | 0.00 | 1015.4 | |
| 20260505174703 | 27 | 250 | 8.0 | 24.1 | 0.00 | 0.00 | 0.00 | 40 | 1017.6 |
| 20260505174601 | -17 | 243 | 6.4 | 8.0 | 0.00 | 0.00 | 0.00 | 1015.2 | |
| 20260505174546 | 15 | 267 | 9.7 | 22.5 | 0.00 | 0.15 | 0.15 | 75 | 1011.1 |
| 20260505174203 | 27 | 227 | 8.0 | 19.3 | 0.00 | 0.00 | 0.00 | 44 | 1017.7 |
| 20260505174056 | -17 | 269 | 4.8 | 4.8 | 0.00 | 0.00 | 0.00 | 1015.3 | |
| 20260505173553 | -17 | 288 | 1.6 | 1.6 | 0.00 | 0.00 | 0.00 | 1015.2 | |
| 20260505173050 | -17 | 192 | 1.6 | 4.8 | 0.00 | 0.00 | 0.00 | 1015.4 | |
| 20260505173044 | 16 | 250 | 17.7 | 22.5 | 0.00 | 0.15 | 0.15 | 73 | 1011.2 |
| 20260505172548 | -17 | 170 | 6.4 | 9.7 | 0.00 | 0.00 | 0.00 | 1015.4 | |
| 20260505172204 | 27 | 297 | 8.0 | 22.5 | 0.00 | 0.00 | 0.00 | 44 | 1017.9 |
| 20260505172044 | -17 | 186 | 8.0 | 11.3 | 0.00 | 0.00 | 0.00 | 1015.5 | |
| 20260505171703 | 26 | 49 | 9.7 | 27.4 | 0.00 | 0.00 | 0.00 | 45 | 1018.0 |
| 20260505171547 | 16 | 276 | 16.1 | 25.7 | 0.00 | 0.15 | 0.15 | 73 | 1011.3 |
| 20260505171539 | -17 | 224 | 1.6 | 1.6 | 0.00 | 0.00 | 0.00 | 1015.4 | |
| 20260505171036 | -17 | 313 | 0.0 | 1.6 | 0.00 | 0.00 | 0.00 | 1015.3 | |
| 20260505170704 | 27 | 214 | 4.8 | 14.5 | 0.00 | 0.00 | 0.00 | 45 | 1018.0 |
| 20260505170533 | -17 | 336 | 3.2 | 3.2 | 0.00 | 0.00 | 0.00 | 1015.3 | |
| 20260505170203 | 26 | 306 | 8.0 | 16.1 | 0.00 | 0.00 | 0.00 | 46 | 1018.1 |
| 20260505170042 | 16 | 246 | 16.1 | 25.7 | 0.00 | 0.15 | 0.15 | 75 | 1011.4 |
| 20260505170030 | -17 | 65 | 4.8 | 9.7 | 0.00 | 0.00 | 0.00 | 1015.5 | |
| 20260505165704 | 26 | 323 | 8.0 | 24.1 | 0.00 | 0.00 | 0.00 | 46 | 1018.4 |
| 20260505165525 | -17 | 174 | 4.8 | 4.8 | 0.00 | 0.00 | 0.00 | 1015.5 | |
| 20260505165203 | 26 | 277 | 9.7 | 20.9 | 0.00 | 0.00 | 0.00 | 47 | 1018.3 |
| 20260505165021 | -17 | 263 | 3.2 | 4.8 | 0.00 | 0.00 | 0.00 | 1015.3 | |
| 20260505164703 | 26 | 184 | 9.7 | 20.9 | 0.00 | 0.00 | 0.00 | 48 | 1018.3 |
| 20260505164547 | 16 | 250 | 12.9 | 24.1 | 0.00 | 0.15 | 0.15 | 74 | 1011.3 |
| 20260505164517 | -17 | 164 | 4.8 | 8.0 | 0.00 | 0.00 | 0.00 | 1015.4 | |
| 20260505164204 | 26 | 313 | 9.7 | 20.9 | 0.00 | 0.00 | 0.00 | 48 | 1018.3 |
| 20260505164015 | -17 | 175 | 8.0 | 9.7 | 0.00 | 0.00 | 0.00 | 1015.3 | |
| 20260505163703 | 26 | 281 | 4.8 | 16.1 | 0.00 | 0.00 | 0.00 | 48 | 1018.3 |
| 20260505163514 | -17 | 200 | 4.8 | 4.8 | 0.00 | 0.00 | 0.00 | 1015.3 | |
| 20260505163204 | 26 | 283 | 9.7 | 16.1 | 0.00 | 0.00 | 0.00 | 47 | 1018.4 |
| 20260505163046 | 16 | 269 | 19.3 | 30.6 | 0.00 | 0.15 | 0.15 | 73 | 1011.2 |
| 20260505163010 | -17 | 33 | 1.6 | 1.6 | 0.00 | 0.00 | 0.00 | 1015.4 | |
| 20260505162703 | 26 | 261 | 8.0 | 20.9 | 0.00 | 0.00 | 0.00 | 47 | 1018.6 |
| 20260505162503 | -17 | 168 | 4.8 | 4.8 | 0.00 | 0.00 | 0.00 | 1015.6 | |
| 20260505162203 | 26 | 297 | 4.8 | 11.3 | 0.00 | 0.00 | 0.00 | 48 | 1018.5 |
| 20260505162000 | -17 | 65 | 1.6 | 1.6 | 0.00 | 0.00 | 0.00 | 1015.2 | |
| 20260505161703 | 26 | 147 | 4.8 | 11.3 | 0.00 | 0.00 | 0.00 | 49 | 1018.6 |
| 20260505161541 | 17 | 282 | 16.1 | 27.4 | 0.00 | 0.15 | 0.15 | 72 | 1011.3 |
| 20260505161456 | -17 | 109 | 4.8 | 4.8 | 0.00 | 0.00 | 0.00 | 1015.6 | |
| 20260505161203 | 25 | 272 | 8.0 | 22.5 | 0.00 | 0.00 | 0.00 | 50 | 1018.5 |
| 20260505160954 | -17 | 307 | 1.6 | 1.6 | 0.00 | 0.00 | 0.00 | 1015.6 | |
| 20260505160452 | -17 | 267 | 3.2 | 3.2 | 0.00 | 0.00 | 0.00 | 1015.5 | |
| 20260505160204 | 25 | 147 | 11.3 | 25.7 | 0.00 | 0.00 | 0.00 | 51 | 1018.5 |
| 20260505153203 | 25 | 311 | 8.0 | 20.9 | 0.00 | 0.00 | 0.00 | 52 | 1018.7 |
| 20260505153044 | 17 | 263 | 14.5 | 30.6 | 0.00 | 0.18 | 0.15 | 71 | 1011.3 |
| 20260505152928 | -17 | 148 | 8.0 | 9.7 | 0.00 | 0.00 | 0.00 | 1015.7 | |
| 20260505152703 | 24 | 257 | 4.8 | 16.1 | 0.00 | 0.00 | 0.00 | 53 | 1018.6 |
| 20260505152425 | -17 | 180 | 3.2 | 3.2 | 0.00 | 0.00 | 0.00 | 1015.3 | |
| 20260505152203 | 24 | 190 | 6.4 | 20.9 | 0.00 | 0.00 | 0.00 | 52 | 1018.9 |
| 20260505151920 | -17 | 211 | 1.6 | 3.2 | 0.00 | 0.00 | 0.00 | 1015.4 | |
| 20260505151703 | 24 | 259 | 8.0 | 20.9 | 0.00 | 0.00 | 0.00 | 53 | 1018.8 |
| 20260505151539 | 16 | 298 | 16.1 | 27.4 | 0.00 | 0.18 | 0.15 | 77 | 1011.4 |
| 20260505151416 | -17 | 172 | 14.5 | 20.9 | 0.00 | 0.00 | 0.00 | 1015.4 | |
| 20260505151204 | 24 | 287 | 8.0 | 19.3 | 0.00 | 0.00 | 0.00 | 54 | 1018.7 |
| 20260505150914 | -17 | 162 | 4.8 | 4.8 | 0.00 | 0.00 | 0.00 | 1015.2 | |
| 20260505150410 | -17 | 210 | 6.4 | 8.0 | 0.00 | 0.00 | 0.00 | 1015.3 | |
| 20260505150203 | 23 | 282 | 6.4 | 19.3 | 0.00 | 0.00 | 0.00 | 54 | 1018.9 |
| 20260505140334 | -17 | 225 | 3.2 | 3.2 | 0.00 | 0.00 | 0.00 | 1015.3 | |
| 20260505140204 | 21 | 291 | 8.0 | 19.3 | 0.00 | 0.00 | 0.00 | 59 | 1018.9 |
| 20260505130258 | -17 | 74 | 1.6 | 1.6 | 0.00 | 0.00 | 0.00 | 1015.1 | |
| 20260505130203 | 19 | 289 | 11.3 | 33.8 | 0.00 | 0.00 | 0.00 | 66 | 1019.2 |
| 20260505124748 | -17 | 72 | 0.0 | 1.6 | 0.00 | 0.00 | 0.00 | 1015.2 | |
| 20260505124704 | 19 | 291 | 9.7 | 19.3 | 0.00 | 0.00 | 0.00 | 66 | 1019.1 |
| 20260505124534 | 18 | 260 | 20.9 | 27.4 | 0.00 | 0.18 | 0.15 | 77 | 1011.7 |
| 20260505124245 | -17 | 33 | 1.6 | 3.2 | 0.00 | 0.00 | 0.00 | 1015.2 | |
| 20260505124203 | 18 | 296 | 6.4 | 19.3 | 0.00 | 0.00 | 0.00 | 67 | 1019.1 |
| 20260505123740 | -17 | 83 | 1.6 | 1.6 | 0.00 | 0.00 | 0.00 | 1015.2 | |
| 20260505123704 | 18 | 280 | 9.7 | 19.3 | 0.00 | 0.00 | 0.00 | 67 | 1019.2 |
| 20260505123237 | -17 | 38 | 0.0 | 0.0 | 0.00 | 0.00 | 0.00 | 1015.1 | |
| 20260505123046 | 17 | 240 | 17.7 | 25.7 | 0.00 | 0.18 | 0.15 | 78 | 1011.6 |
| 20260505122734 | -17 | 44 | 1.6 | 1.6 | 0.00 | 0.00 | 0.00 | 1014.9 | |
| 20260505122703 | 18 | 268 | 6.4 | 14.5 | 0.00 | 0.00 | 0.00 | 68 | 1019.1 |
| 20260505122231 | -17 | 54 | 0.0 | 1.6 | 0.00 | 0.00 | 0.00 | 1014.9 | |
| 20260505122204 | 18 | 243 | 4.8 | 14.5 | 0.00 | 0.00 | 0.00 | 69 | 1018.9 |
| 20260505121728 | -17 | 72 | 0.0 | 0.0 | 0.00 | 0.00 | 0.00 | 1015.1 | |
| 20260505121535 | 18 | 263 | 16.1 | 25.7 | 0.00 | 0.18 | 0.15 | 78 | 1011.6 |
| 20260505121224 | -17 | 65 | 1.6 | 1.6 | 0.00 | 0.00 | 0.00 | 1014.9 | |
| 20260505121204 | 17 | 148 | 4.8 | 14.5 | 0.00 | 0.00 | 0.00 | 70 | 1018.8 |
| 20260505120721 | -17 | 41 | 0.0 | 0.0 | 0.00 | 0.00 | 0.00 | 1015.0 | |
| 20260505120704 | 17 | 264 | 4.8 | 16.1 | 0.00 | 0.00 | 0.00 | 70 | 1018.9 |
| 20260505120217 | -17 | 37 | 0.0 | 0.0 | 0.00 | 0.00 | 0.00 | 1014.9 | |
| 20260505120039 | 17 | 248 | 12.9 | 24.1 | 0.00 | 0.18 | 0.15 | 80 | 1011.5 |
| 20260505115716 | -17 | 67 | 0.0 | 0.0 | 0.00 | 0.00 | 0.00 | 1014.9 | |
| 20260505115214 | -17 | 31 | 0.0 | 1.6 | 0.00 | 0.00 | 0.00 | 1015.0 | |
| 20260505115204 | 17 | 314 | 4.8 | 14.5 | 0.00 | 0.00 | 0.00 | 72 | 1019.0 |
| 20260505114711 | -17 | 39 | 0.0 | 0.0 | 0.00 | 0.00 | 0.00 | 1014.7 | |
| 20260505114704 | 16 | 292 | 4.8 | 11.3 | 0.00 | 0.00 | 0.00 | 73 | 1018.8 |
| 20260505114532 | 17 | 288 | 12.9 | 29.0 | 0.00 | 0.20 | 0.15 | 82 | 1011.6 |
| 20260505114207 | -17 | 64 | 0.0 | 0.0 | 0.00 | 0.00 | 0.00 | 1014.6 | |
| 20260505114203 | 16 | 288 | 4.8 | 11.3 | 0.00 | 0.00 | 0.00 | 74 | 1019.0 |
| 20260505113704 | 16 | 299 | 4.8 | 12.9 | 0.00 | 0.00 | 0.00 | 74 | 1018.8 |
| 20260505113204 | 16 | 287 | 4.8 | 12.9 | 0.00 | 0.00 | 0.00 | 75 | 1018.8 |
| 20260505113200 | -17 | 62 | 0.0 | 0.0 | 0.00 | 0.00 | 0.00 | 1014.6 | |
| 20260505113032 | 17 | 261 | 14.5 | 25.7 | 0.15 | 0.20 | 0.15 | 85 | 1011.8 |
| 20260505112656 | -17 | 59 | 0.0 | 0.0 | 0.00 | 0.00 | 0.00 | 1014.6 | |
| 20260505112204 | 15 | 311 | 3.2 | 11.3 | 0.00 | 0.00 | 0.00 | 76 | 1018.8 |
| 20260505112154 | -17 | 34 | 0.0 | 0.0 | 0.00 | 0.00 | 0.00 | 1014.2 | |
| 20260505111703 | 15 | 298 | 3.2 | 11.3 | 0.00 | 0.00 | 0.00 | 76 | 1018.7 |
| 20260505111653 | -17 | 80 | 0.0 | 0.0 | 0.00 | 0.00 | 0.00 | 1014.3 | |
| 20260505111535 | 16 | 257 | 9.7 | 19.3 | 0.15 | 0.20 | 0.15 | 88 | 1011.8 |
| 20260505111204 | 15 | 258 | 6.4 | 16.1 | 0.00 | 0.00 | 0.00 | 76 | 1018.6 |
| 20260505111149 | -17 | 71 | 0.0 | 0.0 | 0.00 | 0.00 | 0.00 | 1014.4 | |
| 20260505110703 | 15 | 339 | 4.8 | 11.3 | 0.00 | 0.00 | 0.00 | 76 | 1018.6 |
| 20260505110646 | -17 | 48 | 0.0 | 0.0 | 0.00 | 0.00 | 0.00 | 1014.5 | |
| 20260505110203 | 15 | 319 | 6.4 | 11.3 | 0.00 | 0.00 | 0.00 | 77 | 1018.6 |
| 20260505110143 | -17 | 51 | 0.0 | 0.0 | 0.00 | 0.00 | 0.00 | 1014.1 | |
| 20260505102119 | -17 | 62 | 0.0 | 0.0 | 0.00 | 0.00 | 0.00 | 1014.1 | |
| 20260505101618 | -17 | 47 | 0.0 | 0.0 | 0.00 | 0.00 | 0.00 | 1014.3 | |
| 20260505101526 | 18 | 231 | 17.7 | 27.4 | 0.00 | 0.05 | 0.00 | 72 | 1011.9 |
| 20260505101203 | 14 | 246 | 4.8 | 14.5 | 0.00 | 0.00 | 0.00 | 79 | 1018.0 |
| 20260505101113 | -17 | 42 | 0.0 | 0.0 | 0.00 | 0.00 | 0.00 | 1014.3 | |
| 20260505100703 | 14 | 266 | 3.2 | 8.0 | 0.00 | 0.00 | 0.00 | 79 | 1018.0 |
| 20260505100610 | -17 | 62 | 0.0 | 0.0 | 0.00 | 0.00 | 0.00 | 1014.3 | |
| 20260505100107 | -17 | 33 | 0.0 | 0.0 | 0.00 | 0.00 | 0.00 | 1014.3 | |
| 20260505100025 | 18 | 249 | 14.5 | 27.4 | 0.00 | 0.05 | 0.00 | 71 | 1011.8 |
| 20260505095703 | 14 | 278 | 3.2 | 9.7 | 0.00 | 0.00 | 0.00 | 79 | 1017.8 |
| 20260505095603 | -17 | 44 | 0.0 | 0.0 | 0.00 | 0.00 | 0.00 | 1014.2 | |
| 20260505095204 | 14 | 284 | 3.2 | 9.7 | 0.00 | 0.00 | 0.00 | 79 | 1017.8 |
| 20260505095100 | -17 | 38 | 0.0 | 1.6 | 0.00 | 0.00 | 0.00 | 1014.0 | |
| 20260505094703 | 14 | 305 | 4.8 | 8.0 | 0.00 | 0.00 | 0.00 | 78 | 1017.7 |
| 20260505094556 | -17 | 55 | 0.0 | 0.0 | 0.00 | 0.00 | 0.00 | 1014.1 | |
| 20260505094523 | 16 | 263 | 16.1 | 30.6 | 0.00 | 0.08 | 0.00 | 74 | 1011.8 |
| 20260505094052 | -17 | 28 | 0.0 | 0.0 | 0.00 | 0.00 | 0.00 | 1014.3 | |
| 20260505093703 | 14 | 263 | 4.8 | 11.3 | 0.00 | 0.00 | 0.00 | 78 | 1017.8 |
| 20260505093549 | -17 | 28 | 0.0 | 0.0 | 0.00 | 0.00 | 0.00 | 1014.1 | |
| 20260505093204 | 14 | 294 | 3.2 | 9.7 | 0.00 | 0.00 | 0.00 | 77 | 1017.6 |
| 20260505093047 | -17 | 38 | 0.0 | 1.6 | 0.00 | 0.00 | 0.00 | 1014.1 | |
| 20260505093022 | 18 | 270 | 14.5 | 27.4 | 0.00 | 0.08 | 0.00 | 70 | 1011.8 |
| 20260505092703 | 14 | 281 | 1.6 | 8.0 | 0.00 | 0.00 | 0.00 | 77 | 1017.6 |
| 20260505092544 | -17 | 41 | 0.0 | 1.6 | 0.00 | 0.00 | 0.00 | 1014.2 | |
| 20260505092203 | 15 | 282 | 4.8 | 9.7 | 0.00 | 0.00 | 0.00 | 77 | 1017.7 |
| 20260505092042 | -17 | 48 | 0.0 | 0.0 | 0.00 | 0.00 | 0.00 | 1014.2 | |
| 20260505091703 | 15 | 288 | 4.8 | 9.7 | 0.00 | 0.00 | 0.00 | 77 | 1017.6 |
| 20260505091538 | -17 | 36 | 0.0 | 0.0 | 0.00 | 0.00 | 0.00 | 1014.2 | |
| 20260505091521 | 18 | 234 | 12.9 | 24.1 | 0.00 | 0.08 | 0.00 | 71 | 1011.7 |
| 20260505091204 | 14 | 299 | 3.2 | 8.0 | 0.00 | 0.00 | 0.00 | 77 | 1017.6 |
| 20260505091037 | -17 | 24 | 0.0 | 0.0 | 0.00 | 0.00 | 0.00 | 1014.0 | |
| 20260505090703 | 15 | 264 | 4.8 | 8.0 | 0.00 | 0.00 | 0.00 | 77 | 1017.6 |
| 20260505090534 | -17 | 41 | 0.0 | 0.0 | 0.00 | 0.00 | 0.00 | 1013.9 | |
| 20260505090203 | 15 | 240 | 3.2 | 14.5 | 0.00 | 0.00 | 0.00 | 76 | 1017.6 |
| 20260505090032 | -17 | 56 | 0.0 | 0.0 | 0.00 | 0.00 | 0.00 | 1013.9 | |
| 20260505090018 | 16 | 256 | 16.1 | 25.7 | 0.00 | 0.08 | 0.00 | 76 | 1011.7 |
| 20260505085703 | 15 | 280 | 4.8 | 12.9 | 0.00 | 0.00 | 0.00 | 76 | 1017.6 |
| 20260505085530 | -17 | 355 | 0.0 | 0.0 | 0.00 | 0.00 | 0.00 | 1013.9 | |
| 20260505085204 | 15 | 242 | 3.2 | 8.0 | 0.00 | 0.00 | 0.00 | 76 | 1017.5 |
| 20260505085028 | -17 | 350 | 0.0 | 0.0 | 0.00 | 0.00 | 0.00 | 1013.8 | |
| 20260505084704 | 15 | 262 | 3.2 | 8.0 | 0.00 | 0.00 | 0.00 | 76 | 1017.5 |
| 20260505084526 | -17 | 351 | 0.0 | 0.0 | 0.00 | 0.00 | 0.00 | 1013.7 | |
| 20260505084517 | 17 | 258 | 11.3 | 25.7 | 0.00 | 0.15 | 0.00 | 74 | 1011.7 |
| 20260505084023 | -17 | 21 | 0.0 | 0.0 | 0.00 | 0.00 | 0.00 | 1013.7 | |
| 20260505083703 | 15 | 310 | 4.8 | 9.7 | 0.00 | 0.00 | 0.00 | 76 | 1017.6 |
| 20260505083520 | -17 | 21 | 0.0 | 0.0 | 0.00 | 0.00 | 0.00 | 1013.7 | |
| 20260505083204 | 15 | 340 | 1.6 | 9.7 | 0.00 | 0.00 | 0.00 | 76 | 1017.6 |
| 20260505083017 | -17 | 22 | 0.0 | 0.0 | 0.00 | 0.00 | 0.00 | 1013.6 | |
| 20260505082704 | 15 | 325 | 3.2 | 8.0 | 0.00 | 0.00 | 0.00 | 76 | 1017.6 |
| 20260505082512 | -17 | 0 | 0.0 | 0.0 | 0.00 | 0.00 | 0.00 | 1013.6 | |
| 20260505082009 | -17 | 358 | 0.0 | 0.0 | 0.00 | 0.00 | 0.00 | 1013.6 | |
| 20260505081704 | 15 | 306 | 4.8 | 8.0 | 0.00 | 0.00 | 0.00 | 75 | 1017.5 |
| 20260505081521 | 17 | 293 | 16.1 | 22.5 | 0.00 | 0.15 | 0.00 | 74 | 1011.6 |
| 20260505081506 | -17 | 8 | 0.0 | 0.0 | 0.00 | 0.00 | 0.00 | 1013.8 | |
| 20260505081204 | 15 | 284 | 3.2 | 8.0 | 0.00 | 0.00 | 0.00 | 75 | 1017.6 |
| 20260505081003 | -17 | 15 | 0.0 | 0.0 | 0.00 | 0.00 | 0.00 | 1013.6 | |
| 20260505080704 | 15 | 319 | 3.2 | 9.7 | 0.00 | 0.00 | 0.00 | 74 | 1017.4 |
| 20260505080459 | -17 | 13 | 0.0 | 0.0 | 0.00 | 0.00 | 0.00 | 1013.6 | |
| 20260505080204 | 15 | 288 | 3.2 | 12.9 | 0.00 | 0.00 | 0.00 | 74 | 1017.3 |
| 20260505080011 | 16 | 254 | 11.3 | 20.9 | 0.00 | 0.15 | 0.00 | 76 | 1011.7 |
| 20260505075955 | -17 | 13 | 0.0 | 0.0 | 0.00 | 0.00 | 0.00 | 1013.5 | |
| 20260505075703 | 15 | 260 | 3.2 | 9.7 | 0.00 | 0.00 | 0.00 | 74 | 1017.4 |
| 20260505075452 | -17 | 15 | 0.0 | 0.0 | 0.00 | 0.00 | 0.00 | 1013.8 | |
| 20260505074949 | -17 | 13 | 0.0 | 0.0 | 0.00 | 0.00 | 0.00 | 1013.9 | |
| 20260505074703 | 15 | 303 | 4.8 | 8.0 | 0.00 | 0.00 | 0.00 | 73 | 1017.3 |
| 20260505074511 | 15 | 276 | 12.9 | 22.5 | 0.00 | 0.33 | 0.00 | 79 | 1011.7 |
| 20260505074447 | -17 | 354 | 0.0 | 0.0 | 0.00 | 0.00 | 0.00 | 1014.0 | |
| 20260505074204 | 15 | 284 | 4.8 | 12.9 | 0.00 | 0.00 | 0.00 | 73 | 1017.2 |
| 20260505073943 | -17 | 317 | 0.0 | 1.6 | 0.00 | 0.00 | 0.00 | 1014.0 | |
| 20260505073703 | 15 | 295 | 3.2 | 9.7 | 0.00 | 0.00 | 0.00 | 73 | 1017.2 |
| 20260505073441 | -17 | 2 | 0.0 | 0.0 | 0.00 | 0.00 | 0.00 | 1013.9 | |
| 20260505073203 | 15 | 258 | 4.8 | 14.5 | 0.00 | 0.00 | 0.00 | 73 | 1017.3 |
| 20260505073011 | 16 | 285 | 16.1 | 24.1 | 0.00 | 0.33 | 0.00 | 77 | 1011.7 |
| 20260505072938 | -17 | 2 | 0.0 | 0.0 | 0.00 | 0.00 | 0.00 | 1013.8 | |
| 20260505072703 | 16 | 255 | 4.8 | 11.3 | 0.00 | 0.00 | 0.00 | 72 | 1017.2 |
| 20260505072434 | -17 | 0 | 0.0 | 0.0 | 0.00 | 0.00 | 0.00 | 1014.0 | |
| 20260505072203 | 16 | 341 | 4.8 | 9.7 | 0.00 | 0.00 | 0.00 | 72 | 1017.1 |
| 20260505071930 | -17 | 25 | 0.0 | 0.0 | 0.00 | 0.00 | 0.00 | 1013.9 | |
| 20260505071704 | 16 | 308 | 4.8 | 11.3 | 0.00 | 0.00 | 0.00 | 72 | 1017.1 |
| 20260505071507 | 15 | 271 | 12.9 | 22.5 | 0.00 | 0.33 | 0.00 | 78 | 1011.7 |
| 20260505071427 | -17 | 329 | 0.0 | 0.0 | 0.00 | 0.00 | 0.00 | 1014.0 | |
| 20260505071203 | 16 | 285 | 4.8 | 12.9 | 0.00 | 0.00 | 0.00 | 72 | 1017.1 |
| 20260505070925 | -17 | 4 | 0.0 | 0.0 | 0.00 | 0.00 | 0.00 | 1014.1 | |
| 20260505070704 | 16 | 279 | 4.8 | 11.3 | 0.00 | 0.00 | 0.00 | 72 | 1016.9 |
| 20260505070421 | -17 | 352 | 0.0 | 0.0 | 0.00 | 0.00 | 0.00 | 1014.3 | |
| 20260505070203 | 16 | 299 | 3.2 | 11.3 | 0.00 | 0.00 | 0.00 | 72 | 1017.1 |
| 20260505070004 | 15 | 268 | 9.7 | 20.9 | 0.00 | 0.33 | 0.00 | 79 | 1011.8 |
| 20260505065917 | -17 | 25 | 0.0 | 0.0 | 0.00 | 0.00 | 0.00 | 1014.1 | |
| 20260505065704 | 16 | 346 | 3.2 | 9.7 | 0.00 | 0.00 | 0.00 | 72 | 1017.1 |
| 20260505065413 | -17 | 58 | 0.0 | 0.0 | 0.00 | 0.00 | 0.00 | 1014.2 | |
| 20260505065204 | 16 | 264 | 3.2 | 9.7 | 0.00 | 0.00 | 0.00 | 71 | 1017.0 |
| 20260505064910 | -17 | 44 | 0.0 | 0.0 | 0.00 | 0.00 | 0.00 | 1014.3 | |
| 20260505064703 | 16 | 281 | 4.8 | 9.7 | 0.00 | 0.00 | 0.00 | 71 | 1017.0 |
| 20260505064503 | 15 | 271 | 11.3 | 20.9 | 0.00 | 0.41 | 0.00 | 80 | 1011.9 |
| 20260505064407 | -17 | 30 | 0.0 | 0.0 | 0.00 | 0.00 | 0.00 | 1014.4 | |
| 20260505064204 | 16 | 266 | 3.2 | 9.7 | 0.00 | 0.00 | 0.00 | 71 | 1017.1 |
| 20260505063906 | -17 | 31 | 0.0 | 0.0 | 0.00 | 0.00 | 0.00 | 1014.5 | |
| 20260505063704 | 16 | 300 | 6.4 | 12.9 | 0.00 | 0.00 | 0.00 | 71 | 1017.3 |
| 20260505063402 | -17 | 28 | 0.0 | 0.0 | 0.00 | 0.00 | 0.00 | 1014.8 | |
| 20260505063203 | 16 | 265 | 6.4 | 11.3 | 0.00 | 0.00 | 0.00 | 70 | 1017.3 |
| 20260505063106 | 14 | 294 | 11.3 | 22.5 | 0.00 | 0.41 | 0.00 | 80 | 1011.8 |
| 20260505062859 | -17 | 25 | 0.0 | 0.0 | 0.00 | 0.00 | 0.00 | 1014.5 | |
| 20260505062356 | -17 | 11 | 0.0 | 0.0 | 0.00 | 0.00 | 0.00 | 1014.7 | |
| 20260505062204 | 16 | 257 | 4.8 | 14.5 | 0.00 | 0.00 | 0.00 | 69 | 1017.3 |
| 20260505061852 | -17 | 17 | 0.0 | 0.0 | 0.00 | 0.00 | 0.00 | 1014.7 | |
| 20260505061704 | 16 | 273 | 8.0 | 14.5 | 0.00 | 0.00 | 0.00 | 69 | 1017.4 |
| 20260505061601 | 14 | 280 | 12.9 | 22.5 | 0.00 | 0.41 | 0.00 | 80 | 1011.9 |
| 20260505061351 | -17 | 26 | 0.0 | 0.0 | 0.00 | 0.00 | 0.00 | 1014.9 | |
| 20260505061203 | 16 | 336 | 3.2 | 14.5 | 0.00 | 0.00 | 0.00 | 69 | 1017.2 |
| 20260505060848 | -17 | 27 | 0.0 | 0.0 | 0.00 | 0.00 | 0.00 | 1014.7 | |
| 20260505060703 | 16 | 239 | 6.4 | 9.7 | 0.00 | 0.00 | 0.00 | 68 | 1017.1 |
| 20260505060344 | -17 | 25 | 0.0 | 0.0 | 0.00 | 0.00 | 0.00 | 1015.1 | |
| 20260505060203 | 16 | 312 | 4.8 | 11.3 | 0.00 | 0.00 | 0.00 | 68 | 1017.2 |
| 20260505060056 | 13 | 324 | 8.0 | 19.3 | 0.00 | 0.41 | 0.00 | 82 | 1011.9 |
| 20260505055840 | -17 | 27 | 0.0 | 0.0 | 0.00 | 0.00 | 0.00 | 1014.9 | |
| 20260505055703 | 17 | 251 | 4.8 | 14.5 | 0.00 | 0.00 | 0.00 | 67 | 1017.1 |
| 20260505055336 | -17 | 26 | 0.0 | 0.0 | 0.00 | 0.00 | 0.00 | 1015.0 | |
| 20260505055203 | 17 | 310 | 8.0 | 22.5 | 0.00 | 0.00 | 0.00 | 67 | 1017.2 |
| 20260505054834 | -17 | 26 | 0.0 | 0.0 | 0.00 | 0.00 | 0.00 | 1015.0 | |
| 20260505054555 | 13 | 273 | 8.0 | 14.5 | 0.00 | 0.41 | 0.00 | 81 | 1011.9 |
| 20260505054331 | -17 | 26 | 0.0 | 0.0 | 0.00 | 0.00 | 0.00 | 1015.0 | |
| 20260505054204 | 17 | 315 | 4.8 | 14.5 | 0.00 | 0.00 | 0.00 | 67 | 1017.4 |
| 20260505053829 | -17 | 26 | 0.0 | 0.0 | 0.00 | 0.00 | 0.00 | 1015.1 | |
| 20260505053704 | 17 | 296 | 6.4 | 16.1 | 0.00 | 0.00 | 0.00 | 67 | 1017.4 |
| 20260505053326 | -17 | 25 | 0.0 | 0.0 | 0.00 | 0.00 | 0.00 | 1015.2 | |
| 20260505053203 | 17 | 319 | 3.2 | 14.5 | 0.00 | 0.00 | 0.00 | 67 | 1017.4 |
| 20260505053055 | 13 | 278 | 8.0 | 16.1 | 0.00 | 0.41 | 0.00 | 83 | 1011.9 |
| 20260505052822 | -17 | 4 | 0.0 | 0.0 | 0.00 | 0.00 | 0.00 | 1015.2 | |
| 20260505052703 | 17 | 270 | 4.8 | 11.3 | 0.00 | 0.00 | 0.00 | 68 | 1017.5 |
| 20260505052319 | -17 | 359 | 0.0 | 0.0 | 0.00 | 0.00 | 0.00 | 1015.4 | |
| 20260505052203 | 17 | 291 | 3.2 | 9.7 | 0.00 | 0.00 | 0.00 | 67 | 1017.5 |
| 20260505051817 | -17 | 327 | 0.0 | 0.0 | 0.00 | 0.00 | 0.00 | 1015.3 | |
| 20260505051703 | 17 | 304 | 6.4 | 11.3 | 0.00 | 0.00 | 0.00 | 66 | 1017.5 |
| 20260505051555 | 12 | 247 | 4.8 | 14.5 | 0.00 | 0.41 | 0.00 | 84 | 1012.0 |
| 20260505051314 | -17 | 347 | 0.0 | 0.0 | 0.00 | 0.00 | 0.00 | 1015.3 | |
| 20260505051203 | 17 | 166 | 3.2 | 8.0 | 0.00 | 0.00 | 0.00 | 66 | 1017.7 |
| 20260505050812 | -17 | 4 | 0.0 | 0.0 | 0.00 | 0.00 | 0.00 | 1015.2 | |
| 20260505050703 | 17 | 278 | 3.2 | 16.1 | 0.00 | 0.00 | 0.00 | 66 | 1017.5 |
| 20260505050311 | -17 | 331 | 0.0 | 0.0 | 0.00 | 0.00 | 0.00 | 1015.1 | |
| 20260505050203 | 17 | 226 | 4.8 | 12.9 | 0.00 | 0.00 | 0.00 | 66 | 1017.5 |
| 20260505041740 | -17 | 14 | 0.0 | 0.0 | 0.00 | 0.00 | 0.00 | 1015.4 | |
| 20260505041704 | 17 | 236 | 4.8 | 11.3 | 0.00 | 0.00 | 0.00 | 66 | 1017.4 |
| 20260505041559 | 12 | 292 | 9.7 | 16.1 | 0.00 | 0.41 | 0.00 | 85 | 1012.1 |
| 20260505041237 | -17 | 15 | 0.0 | 0.0 | 0.00 | 0.00 | 0.00 | 1015.1 | |
| 20260505040735 | -17 | 347 | 0.0 | 0.0 | 0.00 | 0.00 | 0.00 | 1015.5 | |
| 20260505040704 | 17 | 317 | 4.8 | 14.5 | 0.00 | 0.00 | 0.00 | 66 | 1017.5 |
| 20260505040232 | -17 | 26 | 0.0 | 0.0 | 0.00 | 0.00 | 0.00 | 1015.3 | |
| 20260505040203 | 17 | 223 | 4.8 | 12.9 | 0.00 | 0.00 | 0.00 | 66 | 1017.4 |
| 20260505040059 | 12 | 300 | 4.8 | 12.9 | 0.00 | 0.41 | 0.00 | 84 | 1012.1 |
| 20260505035729 | -17 | 13 | 0.0 | 0.0 | 0.00 | 0.00 | 0.00 | 1015.3 | |
| 20260505035703 | 17 | 309 | 4.8 | 14.5 | 0.00 | 0.00 | 0.00 | 65 | 1017.3 |
| 20260505035225 | -17 | 15 | 0.0 | 0.0 | 0.00 | 0.00 | 0.00 | 1015.4 | |
| 20260505035203 | 17 | 309 | 8.0 | 12.9 | 0.00 | 0.00 | 0.00 | 65 | 1017.3 |
| 20260505034722 | -17 | 6 | 0.0 | 0.0 | 0.00 | 0.00 | 0.00 | 1015.5 | |
| 20260505034704 | 17 | 296 | 9.7 | 16.1 | 0.00 | 0.00 | 0.00 | 65 | 1017.1 |
| 20260505034606 | 12 | 292 | 6.4 | 12.9 | 0.00 | 0.41 | 0.00 | 84 | 1012.3 |
| 20260505034219 | -17 | 330 | 0.0 | 0.0 | 0.00 | 0.00 | 0.00 | 1015.4 | |
| 20260505034203 | 18 | 259 | 6.4 | 14.5 | 0.00 | 0.00 | 0.00 | 65 | 1017.2 |
| 20260505033715 | -17 | 357 | 0.0 | 0.0 | 0.00 | 0.00 | 0.00 | 1015.4 | |
| 20260505033704 | 18 | 278 | 4.8 | 16.1 | 0.00 | 0.00 | 0.00 | 65 | 1017.2 |
| 20260505033213 | -17 | 354 | 0.0 | 0.0 | 0.00 | 0.00 | 0.00 | 1015.4 | |
| 20260505033204 | 17 | 194 | 4.8 | 12.9 | 0.00 | 0.00 | 0.00 | 65 | 1017.1 |
| 20260505033047 | 12 | 277 | 4.8 | 14.5 | 0.00 | 0.41 | 0.00 | 83 | 1012.2 |
| 20260505032711 | -17 | 350 | 0.0 | 0.0 | 0.00 | 0.00 | 0.00 | 1015.5 | |
| 20260505032704 | 18 | 98 | 8.0 | 14.5 | 0.00 | 0.00 | 0.00 | 65 | 1017.3 |
| 20260505032206 | -17 | 5 | 0.0 | 0.0 | 0.00 | 0.00 | 0.00 | 1015.4 | |
| 20260505031704 | -17 | 5 | 0.0 | 0.0 | 0.00 | 0.00 | 0.00 | 1015.7 | |
| 20260505031547 | 12 | 307 | 9.7 | 17.7 | 0.00 | 0.41 | 0.00 | 83 | 1012.1 |
| 20260505031204 | 18 | 8 | 4.8 | 12.9 | 0.00 | 0.00 | 0.00 | 65 | 1017.2 |
| 20260505031200 | -17 | 339 | 0.0 | 0.0 | 0.00 | 0.00 | 0.00 | 1015.9 | |
| 20260505030657 | -17 | 346 | 0.0 | 0.0 | 0.00 | 0.00 | 0.00 | 1015.6 | |
| 20260505030203 | 18 | 299 | 8.0 | 19.3 | 0.00 | 0.00 | 0.00 | 64 | 1017.3 |
| 20260505030153 | -17 | 349 | 0.0 | 0.0 | 0.00 | 0.00 | 0.00 | 1015.7 | |
| 20260505030049 | 12 | 295 | 9.7 | 17.7 | 0.00 | 0.41 | 0.00 | 83 | 1012.3 |
| 20260505025704 | 18 | 215 | 6.4 | 16.1 | 0.00 | 0.00 | 0.00 | 64 | 1017.4 |
| 20260505025649 | -17 | 346 | 0.0 | 0.0 | 0.00 | 0.00 | 0.00 | 1015.4 | |
| 20260505025148 | -17 | 316 | 0.0 | 1.6 | 0.00 | 0.00 | 0.00 | 1015.5 | |
| 20260505024703 | 18 | 307 | 6.4 | 14.5 | 0.00 | 0.00 | 0.00 | 64 | 1017.4 |
| 20260505024645 | -17 | 339 | 0.0 | 0.0 | 0.00 | 0.00 | 0.00 | 1015.4 | |
| 20260505024547 | 12 | 281 | 9.7 | 16.1 | 0.00 | 0.41 | 0.00 | 84 | 1012.3 |
| 20260505024203 | 18 | 259 | 6.4 | 20.9 | 0.00 | 0.00 | 0.00 | 65 | 1017.2 |
| 20260505024142 | -17 | 0 | 0.0 | 0.0 | 0.00 | 0.00 | 0.00 | 1015.3 | |
| 20260505023703 | 18 | 289 | 4.8 | 14.5 | 0.00 | 0.00 | 0.00 | 65 | 1016.9 |
| 20260505023640 | -17 | 2 | 0.0 | 0.0 | 0.00 | 0.00 | 0.00 | 1015.1 | |
| 20260505023203 | 18 | 126 | 4.8 | 19.3 | 0.00 | 0.00 | 0.00 | 66 | 1017.1 |
| 20260505023137 | -17 | 353 | 0.0 | 0.0 | 0.00 | 0.00 | 0.00 | 1015.2 | |
| 20260505023047 | 12 | 296 | 11.3 | 19.3 | 0.00 | 0.41 | 0.00 | 83 | 1012.3 |
| 20260505022704 | 18 | 279 | 8.0 | 19.3 | 0.00 | 0.00 | 0.00 | 66 | 1017.1 |
| 20260505022634 | -17 | 329 | 0.0 | 0.0 | 0.00 | 0.00 | 0.00 | 1015.2 | |
| 20260505022203 | 18 | 318 | 4.8 | 12.9 | 0.00 | 0.00 | 0.00 | 66 | 1017.2 |
| 20260505022131 | -17 | 0 | 0.0 | 0.0 | 0.00 | 0.00 | 0.00 | 1015.1 | |
| 20260505021703 | 18 | 267 | 4.8 | 14.5 | 0.00 | 0.00 | 0.00 | 66 | 1017.1 |
| 20260505021627 | -17 | 10 | 0.0 | 0.0 | 0.00 | 0.00 | 0.00 | 1015.3 | |
| 20260505021545 | 12 | 259 | 8.0 | 17.7 | 0.00 | 0.41 | 0.00 | 83 | 1012.3 |
| 20260505021124 | -17 | 14 | 0.0 | 0.0 | 0.00 | 0.00 | 0.00 | 1015.2 | |
| 20260505020703 | 18 | 303 | 4.8 | 9.7 | 0.00 | 0.00 | 0.00 | 66 | 1017.2 |
| 20260505020620 | -17 | 6 | 0.0 | 0.0 | 0.00 | 0.00 | 0.00 | 1015.1 | |
| 20260505020204 | 18 | 307 | 4.8 | 14.5 | 0.00 | 0.00 | 0.00 | 66 | 1017.4 |
| 20260505020116 | -17 | 52 | 0.0 | 0.0 | 0.00 | 0.00 | 0.00 | 1015.1 | |
| 20260505020057 | 12 | 293 | 11.3 | 22.5 | 0.00 | 0.41 | 0.00 | 83 | 1012.3 |
| 20260505015703 | 18 | 252 | 4.8 | 12.9 | 0.00 | 0.00 | 0.00 | 66 | 1017.3 |
| 20260505015613 | -17 | 17 | 0.0 | 0.0 | 0.00 | 0.00 | 0.00 | 1015.3 | |
| 20260505015203 | 18 | 247 | 6.4 | 12.9 | 0.00 | 0.00 | 0.00 | 66 | 1017.2 |
| 20260505015110 | -17 | 247 | 1.6 | 1.6 | 0.00 | 0.00 | 0.00 | 1015.2 | |
| 20260505014704 | 18 | 291 | 3.2 | 14.5 | 0.00 | 0.00 | 0.00 | 66 | 1017.2 |
| 20260505014607 | -17 | 0 | 0.0 | 0.0 | 0.00 | 0.00 | 0.00 | 1015.2 | |
| 20260505014542 | 12 | 305 | 8.0 | 16.1 | 0.00 | 0.41 | 0.00 | 83 | 1012.3 |